Погода в Мирном

Россия / Волгоградская область     51°11′02″N   42°49′03″E
темп.,
°C
ветер,
м/с
пор.,
м/с
влажн.,
%
обл.,
%
осадки,
мм/ч
давл.,
гПа
погр.,
м
6 мая, чт
чт600:00+8ююз34725 0.0 101743
03:00+7ююз33720 0.0 101738
06:00+8ю367653 0.0 1017134
09:00+14ю5857100 0.0 1017622
12:00+17ююз6746100 0.0 10161756
15:00+17ю6845100 0.0 10152034
18:00+16ю4856100 0.0 1014329
21:00+12ююв4964100 0.0 1015153
7 мая, пт
пт700:00+10ююв4971100 0.0 1014150
03:00+11ююв41066100 0.0 1014243
06:00+11ю4969100 0.0 1014266
09:00+12ю3774100 0.0 1014301
12:00+16юз4563100 0.8 1014953
15:00+13ссз5682100 3.5 1015363
18:00+13ссз457847 0.1 1016717
21:00+9ссв33890 0.1 101832
8 мая, сб
сб800:00+7всв22925 0.0 101722
03:00+6в119395 0.0 101710
06:00+8юв128812 0.0 101759
09:00+14ю456157 0.0 1016561
12:00+18ю6852100 0.0 10141238
15:00+20ю71050100 0.0 10122252
18:00+17ююз51164100 0.1 1011307
21:00+15ю41479100 0.3 1010409
9 мая, вс
вс900:00+14ююз51483100 0.9 1010381
03:00+10сз6992100 1.0 1012470
06:00+8ссз5985100 0.0 1013469
09:00+8с5784100 0.1 1013605
12:00+6с61091100 0.8 1014528
15:00+7с81290100 2.2 1014650
18:00+6с91493100 3.1 1014685
21:00+6с101793100 7.2 1014757
10 мая, пн
пн1000:00+6с91694100 2.6 1014737
03:00+6ссв101794100 5.4 1014721
06:00+7ссв101794100 1.9 1015638
09:00+7ссв91895100 3.4 1015587
12:00+9св91695100 1.9 1016668
15:00+11св91795100 4.4 1016858
18:00+13св81691100 1.1 1017560
21:00+12св71494100 1.5 1019471